[[{"header":{"parameterUnit":"m.s-1","parameterCategory":1,"la1":30.2991,"la2":30.254,"lo1":-89.0895,"lo2":-89.0444,"dy":0.0017,"dx":0.0017,"nx":28,"ny":28,"refTime":"2024-04-03T09:00:00:Z","depth":0,"parameterNumber":2,"parameterNumberName":"U-component_of_WINDS"},"data":[0,0,0,0,0,0,0,0,0,0,0,0,0,0,0,0,0,0,0,0,0,0,0,0,0,0,0,0,0,0,0,0,0,0,0,0,0,0,0,0,0,0,0,0,0,0,0,0,0,0,0,0,0,0,0,0,0,0,4.8632,4.8633,0,4.8714,4.8715,4.8716,4.8667,4.8665,4.8662,4.866,4.8742,4.8747,4.8751,0,0,0,0,0,0,0,0,0,0,0,0,0,4.8433,4.8437,4.8632,4.8633,4.8634,4.8714,4.8715,4.8716,4.8668,4.8665,4.8662,4.8659,4.8741,4.8746,4.8751,0,0,0,0,0,0,0,0,0,0,0,0,0,4.8518,4.8439,4.8632,4.8619,4.8619,4.8714,4.8715,4.8716,4.8668,4.8665,4.8661,4.8658,4.8739,4.8746,4.8752,4.8863,0,0,4.8772,4.8775,0,0,0,0,0,0,0,0,4.8513,4.8525,4.862,4.862,4.862,4.8677,4.8675,4.8765,4.8669,4.8649,4.866,4.8656,4.8723,4.8731,4.8754,4.8867,4.887,4.8773,4.8777,4.8779,4.8781,0,0,0,0,0,0,0,4.8507,4.8521,4.8664,4.8622,4.8622,4.861,4.8618,4.8692,4.8705,4.8651,4.8648,4.8658,4.8723,4.8748,4.8755,4.8871,4.8772,4.8778,4.8782,4.8785,4.9082,4.9085,0,0,0,0,0,0,4.8503,4.8517,4.8662,4.8667,4.8557,4.8616,4.8625,4.8662,4.8704,4.8707,4.8661,4.8655,4.8738,4.8748,4.8758,4.8892,4.8779,4.8785,4.8789,4.9078,4.9083,4.9087,0,0,0,0,0,0,4.8498,4.8516,4.8658,4.8591,4.8608,4.8623,4.8665,4.8666,4.8691,4.8712,4.8714,4.8684,4.8736,4.8749,4.8838,4.8894,4.8788,4.8794,4.9073,4.9079,4.9085,4.916,0,0,0,0,0,0,4.8493,4.8515,4.8557,4.8592,4.8612,4.8737,4.8669,4.867,4.8702,4.8696,4.8734,4.8737,4.8734,4.8828,4.8844,4.8901,4.88,4.9068,4.9076,4.9083,4.9152,4.9168,4.9181,0,0,0,0,0,4.8486,4.8574,4.8559,4.8577,4.8665,4.874,4.8751,4.8747,4.8707,4.875,4.8764,4.8736,4.8886,4.8838,4.8855,4.8915,4.9064,4.9074,4.9082,4.9146,4.9165,4.918,0,0,0,0,0,0,4.8542,4.8578,4.8562,4.8664,4.87,4.8732,4.8785,4.8766,4.8813,4.8805,4.8797,4.8806,4.8899,4.8916,4.8862,4.9026,4.8969,4.8982,4.9011,4.9029,4.9043,4.9037,4.8805,0,0,0,0,0,4.8567,4.8626,4.8653,4.874,4.8759,4.877,4.8802,4.8796,4.8832,4.8847,4.8867,4.8903,4.8958,4.8995,4.9047,4.9155,4.9163,4.9205,4.9219,4.9231,4.9242,4.9303,4.9322,4.9116,4.9116,4.9116,0,0,4.8618,4.8644,4.8681,4.8752,4.8779,4.884,4.8782,4.8848,4.8894,4.8856,4.8942,4.8959,4.8998,4.9098,4.9143,4.9115,4.9301,4.9242,4.9251,4.9256,4.9314,4.9333,4.9351,4.9122,4.9121,4.912,0,0,4.8742,4.8767,4.8844,4.8873,4.8915,4.8922,4.894,4.8976,4.8986,4.9072,4.9046,4.91,4.9195,4.9226,4.9253,4.9393,4.9369,4.941,4.9483,4.9543,4.9559,4.9573,4.9624,4.9642,4.9421,4.9421,4.9421,0,4.8799,4.889,4.8885,4.8955,4.8987,4.8958,4.9036,4.9064,4.9121,4.9144,4.9112,4.9233,4.9258,4.9365,4.94,4.9423,4.9444,4.9405,4.9557,4.9571,4.9585,4.9633,4.9652,4.9426,4.9425,4.9425,4.9424,0,4.896,4.9023,4.908,4.9138,4.9177,4.925,4.9256,4.9297,4.9288,4.9299,4.9388,4.9417,4.9475,4.9501,4.9492,4.9608,4.9589,4.9558,4.95,4.9609,4.9654,4.9673,4.9432,4.9431,4.9429,4.9428,0,0,4.9119,4.9175,4.9196,4.9223,4.9269,4.9318,4.9391,4.9449,4.9485,4.9525,4.9587,4.967,4.9642,4.9673,4.9668,4.972,4.9831,4.9682,4.9683,4.971,4.9962,4.9986,5.0007,4.9816,4.982,4.9822,4.9959,0,4.9246,4.9374,4.9373,4.9491,4.9551,4.9526,4.9589,4.9625,4.9638,4.969,4.9704,4.9763,4.9721,4.974,4.9791,4.9807,4.9881,4.9797,4.9873,4.9876,4.9864,5.0031,5.0056,5.0183,4.9977,4.998,4.9982,0,4.9411,4.946,4.9584,4.9624,4.9649,4.9706,4.9761,4.9812,4.9852,4.9858,4.9895,4.9883,4.9958,4.9899,5.0003,4.9945,4.9977,4.999,4.9995,5.0002,4.9935,5.0042,5.0223,5.0243,5.0009,5.0007,5.0005,0,4.9516,4.9612,4.97,4.9724,4.9772,4.9813,4.9835,4.9872,4.9908,4.9956,4.998,5.0036,5.0066,5.011,5.0114,5.007,5.0219,5.016,5.0226,5.0227,5.0258,5.0256,5.0447,5.0279,5.0278,5.0278,5.0278,0,4.9658,4.9736,4.9748,4.9802,4.9889,4.9888,4.9974,4.9992,5.0026,5.0083,5.0065,5.0119,5.012,5.0176,5.018,5.0266,5.028,5.0287,5.0287,5.0289,5.0288,5.0309,5.03,5.0283,5.0282,5.0281,5.028,0,4.979,4.9801,4.9895,4.9934,4.9946,5.0008,5.0042,5.0094,5.0105,5.0179,5.0196,5.0214,5.0279,5.0288,5.0363,5.0366,5.047,5.046,5.0457,5.0455,5.0521,5.0515,5.0733,5.0762,5.0574,5.0576,5.0577,0,4.988,4.9939,4.9985,5.0023,5.0048,5.0108,5.0146,5.0148,5.0188,5.024,5.0286,5.035,5.0401,5.0506,5.0526,5.0585,5.0577,5.0649,5.0585,5.0586,5.0579,5.0575,5.0582,5.0661,5.0663,5.0665,5.0666,0,5.0039,5.0042,5.0097,5.0155,5.0201,5.0246,5.0289,5.0321,5.0329,5.0375,5.0442,5.0482,5.056,5.0624,5.0682,5.0705,5.0688,5.0687,5.0705,5.0707,5.0703,5.0707,5.0491,5.0681,5.068,5.0678,5.0678,5.0677,5.0152,5.0205,5.0246,5.0309,5.0342,5.0383,5.0435,5.0454,5.051,5.0575,5.0573,5.0647,5.0689,5.0765,5.0793,5.0851,5.0827,5.0854,5.0861,5.0867,5.0875,5.0694,5.0862,5.0861,5.0861,5.0861,5.086,0,5.0311,5.0337,5.0395,5.0456,5.0506,5.0487,5.0534,5.0577,5.0643,5.0683,5.0735,5.0813,5.0876,5.0902,5.0964,5.1006,5.1,5.1022,5.1019,5.1025,5.0892,5.087,5.1026,5.1026,5.1026,5.1026,5.1026,5.1026,5.0399,5.0487,5.0496,5.0602,5.0627,5.0701,5.073,5.0768,5.0801,5.0889,5.0942,5.0959,5.0995,5.1059,5.1116,5.1122,5.1146,5.1173,5.1175,5.105,5.1034,5.1018,5.0997,5.1178,5.1178,5.1304,5.1305,5.1306]},{"header":{"parameterUnit":"m.s-1","parameterCategory":1,"la1":30.2991,"la2":30.254,"lo1":-89.0895,"lo2":-89.0444,"dy":0.0017,"dx":0.0017,"nx":28,"ny":28,"refTime":"2024-04-03T09:00:00:Z","depth":0,"parameterNumber":3,"parameterNumberName":"V-component_of_WINDS"},"data":[0,0,0,0,0,0,0,0,0,0,0,0,0,0,0,0,0,0,0,0,0,0,0,0,0,0,0,0,0,0,0,0,0,0,0,0,0,0,0,0,0,0,0,0,0,0,0,0,0,0,0,0,0,0,0,0,0,0,-8.5318,-8.5321,0,-8.5541,-8.5544,-8.5546,-8.5503,-8.5499,-8.5495,-8.5492,-8.5716,-8.5726,-8.5735,0,0,0,0,0,0,0,0,0,0,0,0,0,-8.4854,-8.4863,-8.5318,-8.5321,-8.5324,-8.5541,-8.5544,-8.5547,-8.5504,-8.5499,-8.5494,-8.549,-8.5713,-8.5724,-8.5736,0,0,0,0,0,0,0,0,0,0,0,0,0,-8.5064,-8.4866,-8.5318,-8.5329,-8.5332,-8.554,-8.5544,-8.5548,-8.5505,-8.5499,-8.5493,-8.5487,-8.5709,-8.5723,-8.5738,-8.5948,0,0,-8.5782,-8.5788,0,0,0,0,0,0,0,0,-8.5052,-8.5081,-8.5324,-8.5328,-8.5332,-8.5488,-8.5462,-8.5682,-8.5507,-8.5439,-8.5491,-8.5484,-8.5645,-8.5664,-8.5719,-8.5958,-8.5968,-8.5783,-8.5792,-8.5799,-8.5803,0,0,0,0,0,0,0,-8.5038,-8.5071,-8.5406,-8.5328,-8.5333,-8.5322,-8.5345,-8.5504,-8.5573,-8.5445,-8.5442,-8.5469,-8.5646,-8.5705,-8.5724,-8.5971,-8.5783,-8.5796,-8.5805,-8.5811,-8.6396,-8.6402,0,0,0,0,0,0,-8.502,-8.5059,-8.5399,-8.5413,-8.5175,-8.5335,-8.5361,-8.5444,-8.5571,-8.5585,-8.5474,-8.5466,-8.5683,-8.5707,-8.5732,-8.5988,-8.5798,-8.5812,-8.582,-8.6389,-8.6397,-8.6405,0,0,0,0,0,0,-8.501,-8.5051,-8.539,-8.5236,-8.5278,-8.535,-8.5443,-8.5452,-8.5511,-8.5593,-8.5605,-8.5522,-8.568,-8.5711,-8.5895,-8.5995,-8.5819,-8.5832,-8.6381,-8.6392,-8.6401,-8.65,0,0,0,0,0,0,-8.4997,-8.5047,-8.5128,-8.5238,-8.5287,-8.5551,-8.5449,-8.546,-8.5537,-8.5529,-8.5642,-8.5655,-8.5677,-8.5874,-8.591,-8.6012,-8.5843,-8.6373,-8.6386,-8.6398,-8.6489,-8.6513,-8.6534,0,0,0,0,0,-8.4981,-8.5146,-8.5132,-8.5174,-8.5389,-8.5556,-8.5584,-8.5608,-8.5545,-8.5627,-8.568,-8.5651,-8.5978,-8.5893,-8.5933,-8.6041,-8.6366,-8.6382,-8.6397,-8.6479,-8.6508,-8.6533,0,0,0,0,0,0,-8.5044,-8.516,-8.5147,-8.5353,-8.5445,-8.5549,-8.5653,-8.5638,-8.5749,-8.5737,-8.5761,-8.5787,-8.5974,-8.6026,-8.5928,-8.6252,-8.6163,-8.6187,-8.6212,-8.624,-8.6262,-8.6246,-8.5855,0,0,0,0,0,-8.5083,-8.521,-8.5304,-8.5476,-8.5524,-8.5581,-8.5654,-8.5665,-8.5761,-8.5799,-8.5866,-8.596,-8.6084,-8.6165,-8.6283,-8.6496,-8.652,-8.659,-8.6613,-8.6631,-8.6651,-8.6769,-8.6802,-8.6455,-8.6455,-8.6455,0,0,-8.5162,-8.5242,-8.532,-8.5491,-8.5564,-8.5695,-8.5614,-8.5754,-8.5852,-8.582,-8.5999,-8.6051,-8.6157,-8.6357,-8.6448,-8.6406,-8.6753,-8.665,-8.6664,-8.6675,-8.6788,-8.6821,-8.685,-8.6466,-8.6464,-8.6462,0,0,-8.5375,-8.5448,-8.56,-8.5676,-8.5788,-8.5825,-8.5862,-8.5969,-8.6003,-8.6183,-8.6163,-8.6278,-8.6491,-8.6568,-8.6635,-8.688,-8.6858,-8.6918,-8.7035,-8.715,-8.7177,-8.7201,-8.729,-8.7321,-8.6938,-8.6938,-8.6938,0,-8.546,-8.5657,-8.568,-8.5825,-8.5901,-8.5881,-8.6036,-8.6108,-8.6252,-8.6305,-8.6256,-8.6525,-8.6595,-8.6813,-8.6873,-8.6928,-8.6971,-8.6905,-8.7172,-8.7196,-8.7219,-8.7304,-8.7337,-8.6945,-8.6944,-8.6943,-8.6943,0,-8.5756,-8.5893,-8.6003,-8.6146,-8.6234,-8.6383,-8.6429,-8.6516,-8.652,-8.6562,-8.6746,-8.683,-8.6966,-8.7018,-8.7022,-8.7238,-8.7209,-8.7166,-8.7077,-8.7259,-8.7339,-8.7371,-8.6954,-8.6952,-8.695,-8.6948,0,0,-8.6014,-8.617,-8.621,-8.6275,-8.6399,-8.6505,-8.6653,-8.6788,-8.6862,-8.6963,-8.7089,-8.7271,-8.7232,-8.7308,-8.7321,-8.7422,-8.7612,-8.7366,-8.7369,-8.741,-8.7857,-8.7889,-8.7927,-8.7598,-8.7605,-8.761,-8.7849,0,-8.6239,-8.6502,-8.6529,-8.6764,-8.6892,-8.6875,-8.7005,-8.7094,-8.7138,-8.7253,-8.73,-8.743,-8.7368,-8.7415,-8.7514,-8.7568,-8.7702,-8.7551,-8.7715,-8.7721,-8.769,-8.7968,-8.8003,-8.8224,-8.788,-8.7885,-8.7889,0,-8.6536,-8.6648,-8.6897,-8.7005,-8.7059,-8.7175,-8.7302,-8.7411,-8.7513,-8.7538,-8.7625,-8.7625,-8.7778,-8.7683,-8.7895,-8.7791,-8.786,-8.7897,-8.7906,-8.7923,-8.7816,-8.7993,-8.8295,-8.8329,-8.7938,-8.7934,-8.7931,0,-8.6701,-8.6914,-8.7091,-8.7147,-8.7277,-8.7359,-8.7416,-8.7512,-8.7593,-8.7703,-8.7755,-8.7882,-8.7951,-8.8049,-8.8083,-8.8011,-8.8294,-8.8201,-8.8319,-8.8318,-8.8379,-8.8375,-8.8697,-8.8422,-8.8422,-8.8421,-8.8421,0,-8.695,-8.7103,-8.7167,-8.7276,-8.7447,-8.7476,-8.7645,-8.7698,-8.7784,-8.7903,-8.7896,-8.8007,-8.8045,-8.8163,-8.8191,-8.8363,-8.8394,-8.8418,-8.8424,-8.842,-8.8417,-8.8465,-8.8451,-8.843,-8.8428,-8.8426,-8.8425,0,-8.7162,-8.7211,-8.7403,-8.7512,-8.7542,-8.7664,-8.7756,-8.7861,-8.7904,-8.8055,-8.8092,-8.8159,-8.8298,-8.8342,-8.8509,-8.8527,-8.8729,-8.872,-8.8695,-8.8696,-8.8811,-8.88,-8.9176,-8.9228,-8.8918,-8.8921,-8.8924,0,-8.7318,-8.7436,-8.7558,-8.7638,-8.7699,-8.7828,-8.791,-8.7944,-8.803,-8.8156,-8.8246,-8.8384,-8.8496,-8.8719,-8.8782,-8.891,-8.8905,-8.9029,-8.8924,-8.8917,-8.8909,-8.8902,-8.8914,-8.9048,-8.9051,-8.9054,-8.9056,0,-8.759,-8.7609,-8.7729,-8.7859,-8.7958,-8.8061,-8.816,-8.8225,-8.8273,-8.8371,-8.8514,-8.8601,-8.8773,-8.891,-8.9041,-8.9099,-8.9087,-8.9088,-8.9123,-8.912,-8.9101,-8.9114,-8.8749,-8.908,-8.9077,-8.9075,-8.9074,-8.9073,-8.778,-8.7885,-8.7988,-8.8122,-8.8201,-8.8294,-8.8399,-8.8456,-8.8576,-8.872,-8.8732,-8.8887,-8.8987,-8.9162,-8.9228,-8.9349,-8.9314,-8.9363,-8.9375,-8.9387,-8.9397,-8.9081,-8.9373,-8.9372,-8.9372,-8.9371,-8.9371,0,-8.8053,-8.8119,-8.8242,-8.8382,-8.8488,-8.8468,-8.8578,-8.8667,-8.8804,-8.8899,-8.9011,-8.9176,-8.931,-8.9385,-8.9518,-8.9601,-8.9599,-8.9635,-8.963,-8.9644,-8.942,-8.9378,-8.9635,-8.9635,-8.9635,-8.9635,-8.9635,-8.9635,-8.8207,-8.8384,-8.8415,-8.8632,-8.8696,-8.8849,-8.8914,-8.9,-8.9076,-8.9262,-8.9374,-8.9422,-8.951,-8.965,-8.9772,-8.9791,-8.984,-8.9881,-8.9896,-8.9686,-8.9659,-8.9633,-8.9594,-8.9892,-8.9892,-9.0109,-9.0111,-9.0113]}]]